sat.trackr.live / text

‹ back to catalog

STARLINK-32813

NORAD 62869 · 2025-022R

PAYLOAD ACTIVE UNKNOWN

§ Identity

Operator
Country
US
Launch date
2025-02-01
Launch site
AFWTR
Launch vehicle
Mass (kg)
RCS (m²)

Purposes: comms

External: N2YO · Heavens-Above · Gunter

§ Orbital elements

Epoch: 2026-09-20T09:29:24.148032Z

Period
93.85 min
Inclination
53.1588°
Eccentricity
0.0001050
Mean motion
15.34405865 rev/d
Perigee alt
462.0 km
Apogee alt
463.4 km
Semi-major
6,840.8 km
B*
4.0124e-4
RAAN
302.1648°
Arg perigee
65.4729°
Mean anomaly
294.6383°
Rev number
9,175

§ Raw data

STARLINK-328131 62869U 25022R   26263.39541838  .00013207  00000+0  40124-3 0  99982 62869  53.1588 302.1648 0001050  65.4729 294.6383 15.34405865 91754

JSON: /api/v1/satellites/62869 · /tle

For live sub-satellite position, see the globe view (requires WebGL).

§ Visibility from observer

Set your observer location to see the next 7 days of passes ≥ 10°. The values pass through the URL so the page stays shareable.

No JS? Fill the form by hand. The geolocation button needs JavaScript.